EW4239 Weather Reports


time (UTC)temp
F
wind
direction
speed
knots
gust
knots
rain 1hr
in
rain 24hr
in
rain mn
in
humidity
%
barometer
mb
20260508014544 49 0 0.0 2.6 0.00 0.00 0.00 93 1014.6
20260508013051 49 236 0.0 0.9 0.00 0.00 0.00 93 1014.5
20260508011554 49 236 0.0 2.6 0.00 0.00 0.00 93 1014.7
20260508010045 49 299 0.0 2.6 0.00 0.00 0.00 92 1014.7
20260508004545 49 11 0.0 0.9 0.00 0.00 0.00 91 1014.8
20260508003058 49 25 0.0 0.9 0.00 0.00 0.00 91 1014.9
20260508001548 49 24 0.0 2.6 0.00 0.00 0.00 91 1014.9
20260508000044 49 0 0.0 0.9 0.00 0.00 0.00 92 1015.0
20260507234548 49 0 0.0 0.9 0.00 0.00 0.00 92 1015.1
20260507233045 50 0 0.0 0.9 0.00 0.00 0.00 91 1015.1
20260507231557 50 0 0.0 0.9 0.00 0.00 0.00 90 1015.2
20260507230047 50 0 0.0 1.7 0.00 0.00 0.00 88 1015.2
20260507224559 50 269 0.0 1.7 0.00 0.00 0.00 85 1015.3
20260507223050 49 0 0.0 0.9 0.00 0.00 0.00 84 1015.3
20260507221548 49 0 0.0 0.9 0.00 0.00 0.00 83 1015.4
20260507220048 49 0 0.0 0.0 0.00 0.00 0.00 82 1015.3
20260507214553 49 0 0.0 0.0 0.00 0.00 0.00 82 1015.5
20260507213049 49 0 0.0 0.9 0.00 0.00 0.00 82 1015.4
20260507211546 50 0 0.0 0.9 0.00 0.00 0.00 82 1015.3
20260507210114 50 0 0.0 0.9 0.00 0.00 0.00 82 1015.2
20260507204556 50 0 0.0 0.0 0.00 0.00 0.00 82 1015.3
20260507203051 50 0 0.0 0.0 0.00 0.00 0.00 82 1015.1
20260507201547 50 0 0.0 0.0 0.00 0.00 0.00 81 1015.0
20260507200104 50 0 0.0 0.0 0.00 0.00 0.00 82 1014.8
20260507194550 50 0 0.0 0.0 0.00 0.00 0.00 82 1014.6
20260507193110 51 0 0.0 0.9 0.00 0.00 0.00 81 1014.6
20260507191559 51 293 0.0 0.9 0.00 0.00 0.00 81 1014.6
20260507190052 52 0 0.0 0.9 0.00 0.00 0.00 80 1014.5
20260507184554 52 0 0.0 0.9 0.00 0.00 0.00 79 1014.5
20260507183100 53 0 0.0 0.9 0.00 0.00 0.00 80 1014.5
20260507181558 53 0 0.0 1.7 0.00 0.00 0.00 79 1014.4
20260507180057 53 283 0.0 1.7 0.00 0.00 0.00 78 1014.6
20260507174545 54 274 0.0 1.7 0.00 0.00 0.00 78 1014.6
20260507173107 54 288 0.9 1.7 0.00 0.00 0.00 79 1014.6
20260507171551 54 277 0.0 1.7 0.00 0.00 0.00 79 1014.5
20260507170054 54 217 0.9 2.6 0.00 0.00 0.00 76 1014.6
20260507164557 55 253 0.0 4.3 0.00 0.00 0.00 71 1014.6
20260507163051 55 246 1.7 5.2 0.00 0.00 0.00 70 1014.5
20260507161606 56 271 1.7 7.0 0.00 0.00 0.00 70 1014.6
20260507160104 58 297 0.9 3.5 0.00 0.00 0.00 66 1014.7
20260507154551 57 284 1.7 8.7 0.00 0.00 0.00 66 1014.7
20260507153045 60 256 1.7 5.2 0.00 0.00 0.00 62 1014.6
20260507151547 58 258 2.6 7.8 0.00 0.00 0.00 68 1014.6
20260507150047 58 248 1.7 6.1 0.00 0.00 0.00 64 1014.8
20260507144559 56 303 3.5 8.7 0.00 0.00 0.00 68 1015.0
20260507143059 57 276 2.6 7.0 0.00 0.00 0.00 70 1015.1
20260507141610 58 327 1.7 6.1 0.00 0.00 0.00 65 1015.3
20260507140057 58 262 2.6 7.0 0.00 0.00 0.00 66 1015.3
20260507134553 58 257 0.9 8.7 0.00 0.00 0.00 67 1015.3
20260507133054 57 285 1.7 5.2 0.00 0.00 0.00 68 1015.3
20260507131557 57 285 2.6 7.0 0.00 0.00 0.00 66 1015.3
20260507130052 57 306 1.7 6.1 0.00 0.00 0.00 66 1015.4
20260507124554 56 289 2.6 6.1 0.00 0.00 0.00 69 1015.3
20260507123051 57 259 2.6 7.8 0.00 0.00 0.00 69 1015.6
20260507121550 57 233 2.6 8.7 0.00 0.00 0.00 68 1015.6
20260507120050 57 281 1.7 7.0 0.00 0.00 0.00 66 1015.6
20260507114557 57 254 2.6 6.1 0.00 0.00 0.00 72 1015.6
20260507113044 56 240 0.9 7.8 0.00 0.00 0.00 72 1015.5
20260507111558 56 177 2.6 7.0 0.00 0.00 0.00 73 1015.5
20260507110050 56 283 2.6 7.0 0.00 0.00 0.00 76 1015.5
20260507104551 57 295 3.5 7.8 0.00 0.00 0.00 81 1015.6
20260507103045 56 214 0.9 6.1 0.00 0.00 0.00 80 1015.5
20260507101601 55 302 2.6 7.0 0.00 0.00 0.00 80 1015.5
20260507100047 55 257 1.7 7.0 0.00 0.00 0.00 81 1015.6
20260507094545 55 257 2.6 5.2 0.00 0.00 0.00 84 1015.4
20260507093048 55 354 1.7 6.1 0.00 0.00 0.00 84 1015.3
20260507091548 54 300 1.7 6.1 0.00 0.00 0.00 87 1015.4
20260507090048 53 186 0.9 3.5 0.00 0.00 0.00 91 1015.3
20260507084547 52 265 1.7 4.3 0.00 0.02 0.00 92 1015.4
20260507083047 51 297 0.0 2.6 0.00 0.02 0.00 92 1015.5
20260507081550 51 276 0.9 2.6 0.00 0.02 0.00 92 1015.4
20260507080050 50 292 0.0 3.5 0.00 0.02 0.00 91 1015.4
20260507074555 50 267 0.0 2.6 0.00 0.03 0.00 93 1015.4
20260507073048 49 316 0.0 1.7 0.00 0.03 0.00 93 1015.3
20260507071546 49 294 0.0 1.7 0.00 0.03 0.00 94 1015.1
20260507070049 48 332 0.0 0.9 0.00 0.03 0.00 94 1015.0
20260507064602 47 0 0.0 1.7 0.00 0.03 0.00 94 1014.9
20260507063053 47 0 0.0 0.0 0.00 0.03 0.00 95 1014.8
20260507061546 46 0 0.0 0.0 0.00 0.03 0.00 95 1014.8
20260507060051 45 0 0.0 0.0 0.00 0.03 0.00 95 1014.7
20260507054545 45 0 0.0 0.0 0.00 0.03 0.00 95 1014.7
20260507053055 45 0 0.0 0.0 0.00 0.03 0.00 95 1014.7
20260507051551 44 0 0.0 0.0 0.00 0.03 0.00 95 1014.7
20260507050053 44 0 0.0 0.0 0.00 0.03 0.00 95 1014.7
20260507044547 44 0 0.0 0.0 0.00 0.03 0.00 94 1014.8
20260507043059 44 0 0.0 0.0 0.00 0.03 0.00 94 1014.6
20260507041553 44 0 0.0 0.0 0.00 0.03 0.00 94 1014.5
20260507040056 44 0 0.0 0.0 0.00 0.03 0.00 93 1014.5
20260507034555 44 0 0.0 0.0 0.00 0.03 0.00 93 1014.5
20260507033050 44 0 0.0 0.0 0.00 0.03 0.00 92 1014.4
20260507031552 44 0 0.0 0.0 0.00 0.03 0.00 91 1014.3
20260507030049 45 0 0.0 0.9 0.00 0.03 0.00 90 1014.2
20260507024551 46 0 0.0 0.9 0.00 0.03 0.00 90 1014.3
20260507023108 45 0 0.0 0.0 0.00 0.03 0.00 89 1014.3
20260507021554 46 0 0.0 0.0 0.00 0.03 0.00 89 1014.2
20260507020047 46 0 0.0 0.0 0.00 0.03 0.00 89 1014.2